Tracking 18980 objects as of 19-Feb-2018
HD Live streaming from Space Station
objects crossing your sky now

FENGYUN 1C DEB

Track FENGYUN 1C DEB now!
10-day predictions


NORAD ID: 30328
Int'l Code: 1999-025AAP
Perigee: 858.4 km
Apogee: 865.5 km
Inclination: 98.9 °
Period: 102.0 minutes
Semi major axis: 7232 km
RCS: 0.046 m2 (small)
Launch date: May 10, 1999
Source: People's Republic of China (PRC)
Launch site: Taiyaun Space Center, China (TSC)

Note: This is SATELLITE DEBRIS
aabbcc
Your satellite tracking list
Your tracking list is empty




NASA's NSSDC Master Catalog

Two Line Element Set (TLE):
1 30328U 99025AAP 18050.64054425 -.00000025 +00000-0 +10607-4 0  9991
2 30328 098.9420 078.6369 0004971 337.2616 147.7015 14.11332615570114
Source of the keplerian elements: AFSPC